Location: North Runcton
(52.7000°N, 0.4333°E)
Time: 19:56:31
(UTC+00:00)

Lacrosse 5 rocket - Pass Details

Date: 19 May 2025
Orbit: 419 x 515 km, 57.0° (Epoch: 21 June)

Event Time Altitude Azimuth Distance (km) Brightness Sun altitude
Rises 21:22:09 0° 295° (WNW) 2,492 5.8 -10.1°
Reaches altitude 10° 21:24:31 10° 283° (WNW) 1,594 4.4 -10.4°
Maximum altitude 21:27:35 27° 224° (SW) 883 2.3 -10.6°
Enters shadow 21:29:50 14° 171° (S) 1,303 2.7 -10.8°
